Time,TemperatureF,DewpointF,PressureIn,WindDirection,WindDirectionDegrees,WindSpeedMPH,WindSpeedGustMPH,Humidity,HourlyPrecipIn,Conditions,Clouds,dailyrainin,SoftwareType,DateUTC
2013-01-08 00:00:00,58.1,55.8,30.18,NNE,29,0.0,0.0,92,0.00,,,0.01,Wunderground v.1.15,2013-01-08 05:00:00,
2013-01-08 00:05:00,58.1,55.8,30.18,NNE,29,0.0,0.0,92,0.00,,,0.00,Wunderground v.1.15,2013-01-08 05:05:00,
2013-01-08 00:10:00,58.1,56.1,30.18,NNW,344,0.0,0.0,93,0.00,,,0.00,Wunderground v.1.15,2013-01-08 05:10:00,
2013-01-08 00:15:00,58.1,56.1,30.18,NNW,344,1.0,1.0,93,0.00,,,0.00,Wunderground v.1.15,2013-01-08 05:15:00,
2013-01-08 00:25:00,58.0,56.0,30.18,ENE,61,0.0,1.0,93,0.00,,,0.00,Wunderground v.1.15,2013-01-08 05:25:00,
2013-01-08 00:30:00,58.0,56.0,30.18,ENE,60,0.0,0.0,93,0.00,,,0.00,Wunderground v.1.15,2013-01-08 05:30:00,
2013-01-08 00:35:00,58.0,56.0,30.18,ENE,57,0.0,0.0,93,0.00,,,0.00,Wunderground v.1.15,2013-01-08 05:35:00,
2013-01-08 00:40:00,57.9,56.2,30.18,ENE,57,0.0,0.0,94,0.00,,,0.00,Wunderground v.1.15,2013-01-08 05:40:00,
2013-01-08 00:45:00,57.9,56.2,30.18,North,360,0.0,1.0,94,0.00,,,0.00,Wunderground v.1.15,2013-01-08 05:45:00,
2013-01-08 00:55:00,58.0,56.3,30.18,NNE,23,0.0,0.0,94,0.00,,,0.00,Wunderground v.1.15,2013-01-08 05:55:00,
2013-01-08 01:00:00,58.0,56.3,30.18,NNE,23,0.0,0.0,94,0.00,,,0.00,Wunderground v.1.15,2013-01-08 06:00:00,
2013-01-08 01:10:00,58.2,56.8,30.18,North,360,0.0,0.0,95,0.00,,,0.00,Wunderground v.1.15,2013-01-08 06:10:00,
2013-01-08 01:15:00,58.2,56.5,30.18,North,360,0.0,0.0,94,0.00,,,0.00,Wunderground v.1.15,2013-01-08 06:15:00,
2013-01-08 01:25:00,58.3,56.6,30.18,North,5,0.0,0.0,94,0.00,,,0.00,Wunderground v.1.15,2013-01-08 06:25:00,
2013-01-08 01:30:00,58.4,57.0,30.17,North,360,0.0,0.0,95,0.00,,,0.00,Wunderground v.1.15,2013-01-08 06:30:00,
2013-01-08 01:40:00,58.4,57.0,30.17,North,5,1.0,1.0,95,0.00,,,0.00,Wunderground v.1.15,2013-01-08 06:40:00,
2013-01-08 01:45:00,58.4,57.0,30.17,North,5,1.0,1.0,95,0.00,,,0.00,Wunderground v.1.15,2013-01-08 06:45:00,
2013-01-08 01:55:00,58.4,57.0,30.17,NNE,31,0.0,1.0,95,0.00,,,0.00,Wunderground v.1.15,2013-01-08 06:55:00,
2013-01-08 02:00:00,58.4,57.0,30.17,NNW,336,0.0,1.0,95,0.00,,,0.00,Wunderground v.1.15,2013-01-08 07:00:00,
2013-01-08 02:10:00,58.4,57.0,30.16,NW,323,0.0,1.0,95,0.00,,,0.00,Wunderground v.1.15,2013-01-08 07:10:00,
2013-01-08 02:15:00,58.4,57.0,30.16,NNW,334,1.0,1.0,95,0.00,,,0.00,Wunderground v.1.15,2013-01-08 07:15:00,
2013-01-08 02:25:00,58.6,57.2,30.16,NNW,334,0.0,1.0,95,0.00,,,0.00,Wunderground v.1.15,2013-01-08 07:25:00,
2013-01-08 02:30:00,58.6,57.2,30.16,NNW,334,0.0,0.0,95,0.00,,,0.00,Wunderground v.1.15,2013-01-08 07:30:00,
2013-01-08 02:40:00,58.7,57.6,30.15,NNW,335,0.0,0.0,96,0.00,,,0.00,Wunderground v.1.15,2013-01-08 07:40:00,
2013-01-08 02:50:00,58.9,57.8,30.16,NE,45,0.0,0.0,96,0.00,,,0.00,Wunderground v.1.15,2013-01-08 07:50:00,
2013-01-08 02:55:00,59.0,57.9,30.16,NE,45,0.0,0.0,96,0.00,,,0.00,Wunderground v.1.15,2013-01-08 07:55:00,
2013-01-08 03:05:00,59.3,58.2,30.16,NE,45,0.0,0.0,96,0.00,,,0.00,Wunderground v.1.15,2013-01-08 08:05:00,
2013-01-08 03:15:00,59.4,58.3,30.16,NE,45,0.0,0.0,96,0.00,,,0.00,Wunderground v.1.15,2013-01-08 08:15:00,
2013-01-08 03:20:00,59.5,58.4,30.15,NE,45,0.0,0.0,96,0.00,,,0.00,Wunderground v.1.15,2013-01-08 08:20:00,
2013-01-08 03:30:00,59.6,58.5,30.15,NNW,337,0.0,0.0,96,0.00,,,0.00,Wunderground v.1.15,2013-01-08 08:30:00,
2013-01-08 03:35:00,59.6,58.5,30.15,NNW,337,0.0,0.0,96,0.00,,,0.00,Wunderground v.1.15,2013-01-08 08:35:00,
2013-01-08 03:45:00,59.6,58.5,30.15,NNW,341,0.0,0.0,96,0.00,,,0.00,Wunderground v.1.15,2013-01-08 08:45:00,
2013-01-08 03:55:00,59.4,58.3,30.15,North,350,0.0,1.0,96,0.00,,,0.00,Wunderground v.1.15,2013-01-08 08:55:00,
2013-01-08 04:00:00,59.4,58.3,30.15,North,355,1.0,1.0,96,0.00,,,0.00,Wunderground v.1.15,2013-01-08 09:00:00,
2013-01-08 04:10:00,59.3,58.2,30.15,North,355,0.0,0.0,96,0.00,,,0.00,Wunderground v.1.15,2013-01-08 09:10:00,
2013-01-08 04:15:00,59.3,58.4,30.15,North,355,0.0,0.0,97,0.00,,,0.00,Wunderground v.1.15,2013-01-08 09:15:00,
2013-01-08 04:25:00,59.4,58.5,30.15,NNE,26,0.0,0.0,97,0.00,,,0.00,Wunderground v.1.15,2013-01-08 09:25:00,
2013-01-08 04:30:00,59.5,58.6,30.15,NE,39,0.0,0.0,97,0.00,,,0.00,Wunderground v.1.15,2013-01-08 09:30:00,
2013-01-08 04:40:00,59.4,58.5,30.15,NE,39,0.0,0.0,97,0.00,,,0.00,Wunderground v.1.15,2013-01-08 09:40:00,
2013-01-08 04:45:00,59.4,58.5,30.15,NE,39,0.0,0.0,97,0.00,,,0.00,Wunderground v.1.15,2013-01-08 09:45:00,
2013-01-08 04:55:00,59.3,58.4,30.15,NE,39,0.0,0.0,97,0.00,,,0.00,Wunderground v.1.15,2013-01-08 09:55:00,
2013-01-08 05:05:00,59.4,58.5,30.15,NE,40,0.0,0.0,97,0.00,,,0.00,Wunderground v.1.15,2013-01-08 10:05:00,
2013-01-08 05:15:00,59.5,58.6,30.15,NE,40,0.0,0.0,97,0.00,,,0.00,Wunderground v.1.15,2013-01-08 10:15:00,
2013-01-08 05:20:00,59.6,58.7,30.15,NE,40,0.0,0.0,97,0.00,,,0.00,Wunderground v.1.15,2013-01-08 10:20:00,
2013-01-08 05:30:00,59.6,58.7,30.15,NE,40,0.0,0.0,97,0.00,,,0.00,Wunderground v.1.15,2013-01-08 10:30:00,
2013-01-08 05:40:00,59.7,58.8,30.15,NE,40,0.0,0.0,97,0.00,,,0.00,Wunderground v.1.15,2013-01-08 10:40:00,
2013-01-08 05:45:00,59.7,58.8,30.15,NE,40,0.0,1.0,97,0.00,,,0.00,Wunderground v.1.15,2013-01-08 10:45:00,
2013-01-08 05:55:00,59.8,59.2,30.16,NE,40,0.0,0.0,98,0.00,,,0.00,Wunderground v.1.15,2013-01-08 10:55:00,
2013-01-08 06:05:00,59.9,59.3,30.17,NE,40,0.0,0.0,98,0.00,,,0.00,Wunderground v.1.15,2013-01-08 11:05:00,
2013-01-08 06:15:00,59.9,59.3,30.17,NE,40,0.0,0.0,98,0.00,,,0.00,Wunderground v.1.15,2013-01-08 11:15:00,
2013-01-08 06:20:00,59.9,59.3,30.17,NE,40,0.0,0.0,98,0.00,,,0.00,Wunderground v.1.15,2013-01-08 11:20:00,
2013-01-08 06:30:00,59.9,59.3,30.17,North,11,0.0,0.0,98,0.00,,,0.00,Wunderground v.1.15,2013-01-08 11:30:00,
2013-01-08 06:35:00,60.0,59.4,30.17,North,11,0.0,0.0,98,0.00,,,0.00,Wunderground v.1.15,2013-01-08 11:35:00,
2013-01-08 06:45:00,60.0,59.4,30.18,North,11,0.0,0.0,98,0.00,,,0.00,Wunderground v.1.15,2013-01-08 11:45:00,
2013-01-08 06:50:00,59.9,59.3,30.18,North,11,0.0,0.0,98,0.00,,,0.00,Wunderground v.1.15,2013-01-08 11:50:00,
2013-01-08 07:00:00,59.8,59.2,30.18,North,11,0.0,0.0,98,0.00,,,0.00,Wunderground v.1.15,2013-01-08 12:00:00,
2013-01-08 07:05:00,59.8,59.2,30.19,North,11,0.0,0.0,98,0.00,,,0.00,Wunderground v.1.15,2013-01-08 12:05:00,
2013-01-08 07:15:00,59.5,58.9,30.19,North,11,0.0,0.0,98,0.00,,,0.00,Wunderground v.1.15,2013-01-08 12:15:00,
2013-01-08 07:25:00,59.3,58.4,30.20,North,11,0.0,0.0,97,0.00,,,0.00,Wunderground v.1.15,2013-01-08 12:25:00,
2013-01-08 07:30:00,59.2,58.3,30.20,North,11,0.0,0.0,97,0.00,,,0.00,Wunderground v.1.15,2013-01-08 12:30:00,
2013-01-08 07:40:00,59.1,58.5,30.19,North,11,0.0,0.0,98,0.00,,,0.00,Wunderground v.1.15,2013-01-08 12:40:00,
2013-01-08 07:45:00,59.1,58.5,30.19,North,11,0.0,0.0,98,0.00,,,0.00,Wunderground v.1.15,2013-01-08 12:45:00,
2013-01-08 07:55:00,59.3,58.7,30.20,NNE,27,0.0,0.0,98,0.00,,,0.00,Wunderground v.1.15,2013-01-08 12:55:00,
2013-01-08 08:00:00,59.5,58.9,30.20,NNE,26,0.0,0.0,98,0.00,,,0.00,Wunderground v.1.15,2013-01-08 13:00:00,
2013-01-08 08:10:00,59.8,59.2,30.21,NNE,26,0.0,0.0,98,0.00,,,0.00,Wunderground v.1.15,2013-01-08 13:10:00,
2013-01-08 08:15:00,60.0,59.4,30.21,NNE,26,0.0,0.0,98,0.00,,,0.00,Wunderground v.1.15,2013-01-08 13:15:00,
2013-01-08 08:20:00,60.2,59.6,30.21,NNE,26,0.0,0.0,98,0.00,,,0.00,Wunderground v.1.15,2013-01-08 13:20:00,
2013-01-08 08:30:00,60.5,59.9,30.22,NNE,27,0.0,0.0,98,0.00,,,0.00,Wunderground v.1.15,2013-01-08 13:30:00,
2013-01-08 08:40:00,61.1,60.5,30.22,NNE,30,0.0,0.0,98,0.00,,,0.00,Wunderground v.1.15,2013-01-08 13:40:00,
2013-01-08 08:45:00,61.4,60.8,30.22,NE,55,0.0,1.0,98,0.00,,,0.00,Wunderground v.1.15,2013-01-08 13:45:00,
2013-01-08 08:55:00,62.3,62.0,30.22,ENE,71,0.0,1.0,99,0.00,,,0.00,Wunderground v.1.15,2013-01-08 13:55:00,
2013-01-08 09:05:00,63.4,62.8,30.23,NNE,19,0.0,0.0,98,0.00,,,0.00,Wunderground v.1.15,2013-01-08 14:05:00,
2013-01-08 09:15:00,64.7,64.1,30.23,North,355,1.0,1.0,98,0.00,,,0.00,Wunderground v.1.15,2013-01-08 14:15:00,
2013-01-08 09:20:00,65.5,64.6,30.23,North,355,1.0,1.0,97,0.00,,,0.00,Wunderground v.1.15,2013-01-08 14:20:00,
2013-01-08 09:30:00,67.0,65.5,30.23,ENE,70,0.0,1.0,95,0.00,,,0.00,Wunderground v.1.15,2013-01-08 14:30:00,
2013-01-08 09:40:00,68.4,66.3,30.24,East,96,1.0,2.0,93,0.00,,,0.00,Wunderground v.1.15,2013-01-08 14:40:00,
2013-01-08 09:45:00,69.0,66.6,30.24,North,9,1.0,3.0,92,0.00,,,0.00,Wunderground v.1.15,2013-01-08 14:45:00,
2013-01-08 09:55:00,70.0,66.9,30.24,ESE,111,1.0,2.0,90,0.00,,,0.00,Wunderground v.1.15,2013-01-08 14:55:00,
2013-01-08 10:00:00,70.4,67.0,30.24,NNE,30,2.0,3.0,89,0.00,,,0.00,Wunderground v.1.15,2013-01-08 15:00:00,
2013-01-08 10:10:00,71.0,67.6,30.24,North,355,2.0,2.0,89,0.00,,,0.00,Wunderground v.1.15,2013-01-08 15:10:00,
2013-01-08 10:20:00,71.7,68.0,30.24,North,5,1.0,1.0,88,0.00,,,0.00,Wunderground v.1.15,2013-01-08 15:20:00,
2013-01-08 10:25:00,72.1,68.0,30.24,East,80,1.0,1.0,87,0.00,,,0.00,Wunderground v.1.15,2013-01-08 15:25:00,
2013-01-08 10:30:00,72.7,68.6,30.24,NNW,336,0.0,1.0,87,0.00,,,0.00,Wunderground v.1.15,2013-01-08 15:30:00,
2013-01-08 10:40:00,73.4,68.6,30.24,NE,36,2.0,5.0,85,0.00,,,0.00,Wunderground v.1.15,2013-01-08 15:40:00,
2013-01-08 10:50:00,73.7,68.6,30.23,SE,127,2.0,3.0,84,0.00,,,0.00,Wunderground v.1.15,2013-01-08 15:50:00,
2013-01-08 11:00:00,74.2,69.1,30.23,NE,51,2.0,2.0,84,0.00,,,0.00,Wunderground v.1.15,2013-01-08 16:00:00,
2013-01-08 11:10:00,75.2,69.7,30.23,NE,51,1.0,1.0,83,0.00,,,0.00,Wunderground v.1.15,2013-01-08 16:10:00,
2013-01-08 11:20:00,74.8,68.6,30.23,East,92,2.0,3.0,81,0.00,,,0.00,Wunderground v.1.15,2013-01-08 16:20:00,
2013-01-08 11:30:00,75.1,69.2,30.22,NE,50,2.0,2.0,82,0.00,,,0.00,Wunderground v.1.15,2013-01-08 16:30:00,
2013-01-08 11:40:00,75.7,69.1,30.22,NE,34,1.0,3.0,80,0.00,,,0.00,Wunderground v.1.15,2013-01-08 16:40:00,
2013-01-08 11:45:00,75.7,69.5,30.21,SSE,153,1.0,3.0,81,0.00,,,0.00,Wunderground v.1.15,2013-01-08 16:45:00,
2013-01-08 11:55:00,76.7,69.3,30.21,NNE,30,1.0,2.0,78,0.00,,,0.00,Wunderground v.1.15,2013-01-08 16:55:00,
2013-01-08 12:05:00,77.1,69.7,30.21,ESE,115,1.0,1.0,78,0.00,,,0.00,Wunderground v.1.15,2013-01-08 17:05:00,
2013-01-08 12:10:00,76.8,69.0,30.20,South,171,1.0,1.0,77,0.00,,,0.00,Wunderground v.1.15,2013-01-08 17:10:00,
2013-01-08 12:20:00,76.4,69.0,30.20,NE,55,1.0,1.0,78,0.00,,,0.00,Wunderground v.1.15,2013-01-08 17:20:00,
2013-01-08 12:30:00,77.1,69.3,30.19,NE,44,1.0,1.0,77,0.00,,,0.00,Wunderground v.1.15,2013-01-08 17:30:00,
2013-01-08 12:40:00,77.7,69.5,30.19,NNE,19,3.0,3.0,76,0.00,,,0.00,Wunderground v.1.15,2013-01-08 17:40:00,
2013-01-08 12:45:00,78.1,69.5,30.18,NE,56,2.0,3.0,75,0.00,,,0.00,Wunderground v.1.15,2013-01-08 17:45:00,
2013-01-08 12:55:00,78.5,69.9,30.18,ESE,105,1.0,3.0,75,0.00,,,0.00,Wunderground v.1.15,2013-01-08 17:55:00,
2013-01-08 13:00:00,78.4,69.4,30.17,NNW,348,1.0,1.0,74,0.00,,,0.00,Wunderground v.1.15,2013-01-08 18:00:00,
2013-01-08 13:10:00,77.4,68.5,30.17,North,355,1.0,1.0,74,0.00,,,0.00,Wunderground v.1.15,2013-01-08 18:10:00,
2013-01-08 13:15:00,77.1,68.6,30.17,NNW,333,1.0,2.0,75,0.00,,,0.00,Wunderground v.1.15,2013-01-08 18:15:00,
2013-01-08 13:20:00,77.3,69.1,30.17,ENE,57,1.0,1.0,76,0.00,,,0.00,Wunderground v.1.15,2013-01-08 18:20:00,
2013-01-08 13:30:00,77.8,68.8,30.17,South,175,2.0,3.0,74,0.00,,,0.00,Wunderground v.1.15,2013-01-08 18:30:00,
2013-01-08 13:40:00,78.0,69.4,30.16,SE,143,2.0,2.0,75,0.00,,,0.00,Wunderground v.1.15,2013-01-08 18:40:00,
2013-01-08 13:45:00,78.3,68.9,30.16,NNE,28,2.0,4.0,73,0.00,,,0.00,Wunderground v.1.15,2013-01-08 18:45:00,
2013-01-08 13:50:00,78.4,69.0,30.16,East,92,2.0,2.0,73,0.00,,,0.00,Wunderground v.1.15,2013-01-08 18:50:00,
2013-01-08 14:00:00,78.8,69.4,30.16,NNW,340,1.0,4.0,73,0.00,,,0.00,Wunderground v.1.15,2013-01-08 19:00:00,
2013-01-08 14:05:00,78.3,68.9,30.16,SSE,159,2.0,4.0,73,0.00,,,0.00,Wunderground v.1.15,2013-01-08 19:05:00,
2013-01-08 14:15:00,77.5,69.3,30.16,East,84,1.0,1.0,76,0.00,,,0.00,Wunderground v.1.15,2013-01-08 19:15:00,
2013-01-08 14:25:00,77.8,69.2,30.16,NNE,14,0.0,2.0,75,0.00,,,0.00,Wunderground v.1.15,2013-01-08 19:25:00,
2013-01-08 14:30:00,78.0,69.0,30.16,North,9,1.0,1.0,74,0.00,,,0.00,Wunderground v.1.15,2013-01-08 19:30:00,
2013-01-08 14:40:00,78.0,69.0,30.16,ENE,78,1.0,3.0,74,0.00,,,0.00,Wunderground v.1.15,2013-01-08 19:40:00,
2013-01-08 14:50:00,78.2,68.8,30.15,North,360,1.0,1.0,73,0.00,,,0.00,Wunderground v.1.15,2013-01-08 19:50:00,
2013-01-08 14:55:00,78.1,69.1,30.15,ESE,117,1.0,1.0,74,0.00,,,0.00,Wunderground v.1.15,2013-01-08 19:55:00,
2013-01-08 15:05:00,78.7,68.9,30.15,NE,34,1.0,4.0,72,0.00,,,0.00,Wunderground v.1.15,2013-01-08 20:05:00,
2013-01-08 15:10:00,79.1,69.3,30.15,ESE,108,1.0,2.0,72,0.00,,,0.00,Wunderground v.1.15,2013-01-08 20:10:00,
2013-01-08 15:20:00,79.6,69.4,30.14,WNW,284,1.0,1.0,71,0.00,,,0.00,Wunderground v.1.15,2013-01-08 20:20:00,
2013-01-08 15:30:00,79.1,68.5,30.15,East,92,2.0,2.0,70,0.00,,,0.00,Wunderground v.1.15,2013-01-08 20:30:00,
2013-01-08 15:40:00,79.0,68.8,30.14,ESE,105,1.0,1.0,71,0.00,,,0.00,Wunderground v.1.15,2013-01-08 20:40:00,
2013-01-08 15:45:00,79.0,68.8,30.14,North,5,0.0,1.0,71,0.00,,,0.00,Wunderground v.1.15,2013-01-08 20:45:00,
2013-01-08 15:55:00,78.5,69.1,30.14,NNW,337,1.0,2.0,73,0.00,,,0.00,Wunderground v.1.15,2013-01-08 20:55:00,
2013-01-08 16:05:00,77.4,68.9,30.14,North,5,1.0,1.0,75,0.00,,,0.00,Wunderground v.1.15,2013-01-08 21:05:00,
2013-01-08 16:15:00,76.9,68.8,30.15,East,80,1.0,1.0,76,0.00,,,0.00,Wunderground v.1.15,2013-01-08 21:15:00,
2013-01-08 16:20:00,76.7,68.6,30.15,East,79,0.0,0.0,76,0.00,,,0.00,Wunderground v.1.15,2013-01-08 21:20:00,
2013-01-08 16:25:00,76.6,68.8,30.15,East,79,0.0,0.0,77,0.00,,,0.00,Wunderground v.1.15,2013-01-08 21:25:00,
2013-01-08 16:35:00,76.6,68.8,30.15,North,9,1.0,1.0,77,0.00,,,0.00,Wunderground v.1.15,2013-01-08 21:35:00,
2013-01-08 16:45:00,77.0,68.9,30.16,East,93,1.0,1.0,76,0.00,,,0.00,Wunderground v.1.15,2013-01-08 21:45:00,
2013-01-08 16:55:00,76.4,69.4,30.16,NE,42,1.0,1.0,79,0.00,,,0.00,Wunderground v.1.15,2013-01-08 21:55:00,
2013-01-08 17:00:00,75.9,68.9,30.16,North,5,1.0,1.0,79,0.00,,,0.00,Wunderground v.1.15,2013-01-08 22:00:00,
2013-01-08 17:10:00,75.4,68.8,30.16,NNW,347,1.0,1.0,80,0.00,,,0.00,Wunderground v.1.15,2013-01-08 22:10:00,
2013-01-08 17:15:00,75.2,68.6,30.16,North,349,1.0,2.0,80,0.00,,,0.00,Wunderground v.1.15,2013-01-08 22:15:00,
2013-01-08 17:25:00,74.9,68.3,30.16,North,349,1.0,2.0,80,0.00,,,0.00,Wunderground v.1.15,2013-01-08 22:25:00,
2013-01-08 17:30:00,74.8,68.6,30.16,NNE,24,1.0,1.0,81,0.00,,,0.00,Wunderground v.1.15,2013-01-08 22:30:00,
2013-01-08 17:40:00,74.5,68.6,30.16,ENE,78,1.0,1.0,82,0.00,,,0.00,Wunderground v.1.15,2013-01-08 22:40:00,
2013-01-08 17:50:00,74.1,68.3,30.17,NNE,17,1.0,1.0,82,0.00,,,0.00,Wunderground v.1.15,2013-01-08 22:50:00,
2013-01-08 17:55:00,73.9,68.4,30.17,NNE,17,1.0,2.0,83,0.00,,,0.00,Wunderground v.1.15,2013-01-08 22:55:00,
2013-01-08 18:05:00,73.5,68.0,30.16,North,5,2.0,2.0,83,0.00,,,0.00,Wunderground v.1.15,2013-01-08 23:05:00,
2013-01-08 18:15:00,73.1,68.0,30.16,North,351,1.0,2.0,84,0.00,,,0.00,Wunderground v.1.15,2013-01-08 23:15:00,
2013-01-08 18:25:00,72.7,67.9,30.17,NNW,336,1.0,1.0,85,0.00,,,0.00,Wunderground v.1.15,2013-01-08 23:25:00,
2013-01-08 18:30:00,72.5,67.7,30.17,NNW,342,1.0,2.0,85,0.00,,,0.00,Wunderground v.1.15,2013-01-08 23:30:00,
2013-01-08 18:40:00,72.2,67.8,30.17,NNW,335,1.0,1.0,86,0.00,,,0.00,Wunderground v.1.15,2013-01-08 23:40:00,
2013-01-08 18:45:00,72.0,67.6,30.17,NNW,340,0.0,1.0,86,0.00,,,0.00,Wunderground v.1.15,2013-01-08 23:45:00,
2013-01-08 18:55:00,71.8,67.7,30.18,ENE,63,1.0,1.0,87,0.00,,,0.00,Wunderground v.1.15,2013-01-08 23:55:00,
2013-01-08 19:00:00,71.7,68.0,30.18,North,11,0.0,1.0,88,0.00,,,0.00,Wunderground v.1.15,2013-01-09 00:00:00,
2013-01-08 19:05:00,71.5,67.8,30.18,North,11,0.0,1.0,88,0.00,,,0.00,Wunderground v.1.15,2013-01-09 00:05:00,
2013-01-08 19:15:00,71.1,67.7,30.18,North,5,1.0,1.0,89,0.00,,,0.00,Wunderground v.1.15,2013-01-09 00:15:00,
2013-01-08 19:25:00,70.7,67.6,30.18,East,79,1.0,3.0,90,0.00,,,0.00,Wunderground v.1.15,2013-01-09 00:25:00,
2013-01-08 19:30:00,70.5,67.4,30.18,ENE,76,1.0,2.0,90,0.00,,,0.00,Wunderground v.1.15,2013-01-09 00:30:00,
2013-01-08 19:40:00,70.2,67.1,30.19,East,97,1.0,1.0,90,0.00,,,0.00,Wunderground v.1.15,2013-01-09 00:40:00,
2013-01-08 19:45:00,70.1,67.3,30.18,East,91,1.0,2.0,91,0.00,,,0.00,Wunderground v.1.15,2013-01-09 00:45:00,
2013-01-08 19:55:00,70.0,67.3,30.19,NW,325,1.0,1.0,91,0.00,,,0.00,Wunderground v.1.15,2013-01-09 00:55:00,
2013-01-08 20:00:00,69.9,67.2,30.18,NW,321,1.0,1.0,91,0.00,,,0.00,Wunderground v.1.15,2013-01-09 01:00:00,
2013-01-08 20:10:00,69.7,67.0,30.18,NNE,31,1.0,1.0,91,0.00,,,0.00,Wunderground v.1.15,2013-01-09 01:10:00,
2013-01-08 20:20:00,69.3,66.9,30.18,NE,51,0.0,1.0,92,0.00,,,0.00,Wunderground v.1.15,2013-01-09 01:20:00,
2013-01-08 20:25:00,69.2,66.8,30.18,ESE,122,0.0,1.0,92,0.00,,,0.00,Wunderground v.1.15,2013-01-09 01:25:00,
2013-01-08 20:35:00,68.9,66.5,30.18,NNW,340,1.0,1.0,92,0.00,,,0.00,Wunderground v.1.15,2013-01-09 01:35:00,
2013-01-08 20:45:00,68.7,66.6,30.18,NE,41,1.0,1.0,93,0.00,,,0.00,Wunderground v.1.15,2013-01-09 01:45:00,
2013-01-08 20:50:00,68.6,66.5,30.18,ENE,57,1.0,1.0,93,0.00,,,0.00,Wunderground v.1.15,2013-01-09 01:50:00,
2013-01-08 20:55:00,68.5,66.4,30.18,NE,55,0.0,1.0,93,0.00,,,0.00,Wunderground v.1.15,2013-01-09 01:55:00,
2013-01-08 21:05:00,68.3,66.5,30.19,NNE,22,1.0,3.0,94,0.00,,,0.00,Wunderground v.1.15,2013-01-09 02:05:00,
2013-01-08 21:10:00,68.3,66.5,30.19,North,355,1.0,1.0,94,0.00,,,0.00,Wunderground v.1.15,2013-01-09 02:10:00,
2013-01-08 21:20:00,68.3,66.5,30.19,NNW,331,1.0,1.0,94,0.00,,,0.00,Wunderground v.1.15,2013-01-09 02:20:00,
2013-01-08 21:30:00,68.1,66.3,30.19,NNE,26,0.0,0.0,94,0.00,,,0.00,Wunderground v.1.15,2013-01-09 02:30:00,
2013-01-08 21:35:00,68.0,66.2,30.19,NNE,24,0.0,0.0,94,0.00,,,0.00,Wunderground v.1.15,2013-01-09 02:35:00,
2013-01-08 21:45:00,67.9,66.4,30.20,ENE,78,0.0,1.0,95,0.00,,,0.00,Wunderground v.1.15,2013-01-09 02:45:00,
2013-01-08 21:50:00,67.8,66.3,30.20,NNW,332,0.0,0.0,95,0.00,,,0.00,Wunderground v.1.15,2013-01-09 02:50:00,
2013-01-08 22:00:00,67.7,66.2,30.20,NE,37,0.0,0.0,95,0.00,,,0.00,Wunderground v.1.15,2013-01-09 03:00:00,
2013-01-08 22:10:00,67.7,66.2,30.21,NE,40,0.0,0.0,95,0.00,,,0.00,Wunderground v.1.15,2013-01-09 03:10:00,
2013-01-08 22:15:00,67.6,66.1,30.21,NE,40,0.0,0.0,95,0.00,,,0.00,Wunderground v.1.15,2013-01-09 03:15:00,
2013-01-08 22:25:00,67.4,65.9,30.21,NNE,30,0.0,0.0,95,0.00,,,0.00,Wunderground v.1.15,2013-01-09 03:25:00,
2013-01-08 22:30:00,67.3,66.1,30.21,NNW,335,0.0,0.0,96,0.00,,,0.00,Wunderground v.1.15,2013-01-09 03:30:00,
2013-01-08 22:40:00,67.3,66.1,30.21,North,350,0.0,0.0,96,0.00,,,0.00,Wunderground v.1.15,2013-01-09 03:40:00,
2013-01-08 22:45:00,67.3,66.1,30.21,North,351,0.0,1.0,96,0.00,,,0.00,Wunderground v.1.15,2013-01-09 03:45:00,
2013-01-08 22:55:00,67.2,66.0,30.21,South,173,0.0,0.0,96,0.00,,,0.00,Wunderground v.1.15,2013-01-09 03:55:00,
2013-01-08 23:05:00,67.3,66.1,30.21,NE,47,0.0,0.0,96,0.00,,,0.00,Wunderground v.1.15,2013-01-09 04:05:00,
2013-01-08 23:15:00,67.3,66.4,30.21,North,360,0.0,0.0,97,0.00,,,0.00,Wunderground v.1.15,2013-01-09 04:15:00,
2013-01-08 23:20:00,67.3,66.4,30.21,North,360,0.0,0.0,97,0.00,,,0.00,Wunderground v.1.15,2013-01-09 04:20:00,
2013-01-08 23:30:00,67.3,66.4,30.22,NE,49,0.0,0.0,97,0.00,,,0.00,Wunderground v.1.15,2013-01-09 04:30:00,
2013-01-08 23:35:00,67.3,66.4,30.21,NE,49,0.0,0.0,97,0.00,,,0.00,Wunderground v.1.15,2013-01-09 04:35:00,
2013-01-08 23:45:00,67.4,66.5,30.22,NNW,346,0.0,0.0,97,0.00,,,0.00,Wunderground v.1.15,2013-01-09 04:45:00,
2013-01-08 23:50:00,67.4,66.5,30.22,NNW,345,0.0,0.0,97,0.00,,,0.00,Wunderground v.1.15,2013-01-09 04:50:00,